This is the latest recevied weather packets stored in our database for station/object IZ3LSV-13. If no packets are shown the sender has not sent any weather packets the latest 10 day(s).
| Time | Temp. | Humidity | Pressure | Rain* | Wind** | Luminosity | Snow |
|---|---|---|---|---|---|---|---|
| 1777872879 | 28.33° C | - | 1112.6 hPa | 0 mm | - | - | - |
| 1777872574 | 27.78° C | - | 1112.6 hPa | 0 mm | - | - | - |
| 1777872268 | 27.78° C | - | 1112.7 hPa | 0 mm | - | - | - |
| 1777871962 | 27.22° C | - | 1112.6 hPa | 0 mm | - | - | - |
| 1777871656 | 26.11° C | - | 1112.6 hPa | 0 mm | - | - | - |
| 1777871350 | 25.56° C | - | 1112.5 hPa | 0 mm | - | - | - |
| 1777871045 | 24.44° C | - | 1112.3 hPa | 0 mm | - | - | - |
| 1777870739 | 23.33° C | - | 1112.4 hPa | 0 mm | - | - | - |
| 1777870434 | 22.22° C | - | 1112.4 hPa | 0 mm | - | - | - |
| 1777870129 | 20.56° C | - | 1112.3 hPa | 0 mm | - | - | - |
| 1777869823 | 18.89° C | - | 1112.3 hPa | 0 mm | - | - | - |
| 1777869517 | 18.33° C | - | 1112.3 hPa | 0 mm | - | - | - |
| 1777869212 | 17.78° C | - | 1112.3 hPa | 0 mm | - | - | - |
| 1777868906 | 17.22° C | - | 1112.3 hPa | 0 mm | - | - | - |
| 1777868600 | 17.22° C | - | 1112.4 hPa | 0 mm | - | - | - |
| 1777868295 | 17.22° C | - | 1112.3 hPa | 0 mm | - | - | - |
| 1777867989 | 17.22° C | - | 1112.3 hPa | 0 mm | - | - | - |
| 1777867684 | 17.22° C | - | 1112.3 hPa | 0 mm | - | - | - |
| 1777867379 | 17.22° C | - | 1112.2 hPa | 0 mm | - | - | - |
| 1777867073 | 17.22° C | - | 1112.2 hPa | 0 mm | - | - | - |
| 1777866768 | 17.22° C | - | 1112.2 hPa | 0 mm | - | - | - |
| 1777865852 | 17.22° C | - | 1112.2 hPa | 0 mm | - | - | - |
| 1777865241 | 17.22° C | - | 1112.3 hPa | 0 mm | - | - | - |
| 1777864630 | 17.78° C | - | 1112.2 hPa | 0 mm | - | - | - |
| 1777864325 | 17.78° C | - | 1112.3 hPa | 0 mm | - | - | - |
* Rain latest hour (hover to see other rain measurements)
** Current wind speed in m/s (hover to see current wind gust speed)